| time (UTC) | temp C | wind direction | speed KPH | gust KPH | rain 1hr cm | rain 24hr cm | rain mn cm | humidity % | barometer mb |
| 20260902101802 | 28 | 70 | 17.7 | 0.0 | 0.00 | 0.00 | 0.00 | 43 | 1019.0 |
| 20260902100308 | 28 | 70 | 17.7 | 0.0 | 0.00 | 0.00 | 0.00 | 43 | 1019.0 |
| 20260902094802 | 27 | 80 | 17.7 | 0.0 | 0.00 | 0.00 | 0.00 | 45 | 1019.0 |
| 20260902093302 | 27 | 80 | 17.7 | 0.0 | 0.00 | 0.00 | 0.00 | 45 | 1019.0 |
| 20260902091802 | 27 | 90 | 20.9 | 0.0 | 0.00 | 0.00 | 0.00 | 45 | 1019.0 |
| 20260902090401 | 27 | 80 | 24.1 | 0.0 | 0.00 | 0.00 | 0.00 | 48 | 1019.0 |
| 20260902084802 | 27 | 80 | 24.1 | 0.0 | 0.00 | 0.00 | 0.00 | 48 | 1019.0 |
| 20260902083302 | 27 | 80 | 24.1 | 0.0 | 0.00 | 0.00 | 0.00 | 48 | 1019.0 |
| 20260902081802 | 27 | 70 | 22.5 | 0.0 | 0.00 | 0.00 | 0.00 | 51 | 1019.0 |
| 20260902080302 | 27 | 70 | 22.5 | 0.0 | 0.00 | 0.00 | 0.00 | 51 | 1019.0 |
| 20260902074838 | 26 | 70 | 25.7 | 0.0 | 0.00 | 0.00 | 0.00 | 51 | 1019.0 |
| 20260902073302 | 26 | 70 | 25.7 | 0.0 | 0.00 | 0.00 | 0.00 | 51 | 1019.0 |
| 20260902071802 | 25 | 80 | 24.1 | 0.0 | 0.00 | 0.00 | 0.00 | 57 | 1019.0 |
| 20260902070301 | 25 | 80 | 24.1 | 0.0 | 0.00 | 0.00 | 0.00 | 57 | 1019.0 |
| 20260902064802 | 23 | 80 | 16.1 | 0.0 | 0.00 | 0.00 | 0.00 | 61 | 1019.0 |
| 20260902063303 | 23 | 80 | 16.1 | 0.0 | 0.00 | 0.00 | 0.00 | 61 | 1019.0 |
| 20260902061803 | 23 | 80 | 14.5 | 0.0 | 0.00 | 0.00 | 0.00 | 61 | 1019.0 |
| 20260902060302 | 23 | 80 | 14.5 | 0.0 | 0.00 | 0.00 | 0.00 | 61 | 1019.0 |
| 20260902054801 | 22 | 70 | 16.1 | 0.0 | 0.00 | 0.00 | 0.00 | 69 | 1019.0 |
| 20260902053302 | 22 | 70 | 16.1 | 0.0 | 0.00 | 0.00 | 0.00 | 69 | 1019.0 |
| 20260902051802 | 21 | 70 | 16.1 | 0.0 | 0.00 | 0.00 | 0.00 | 73 | 1019.0 |
| 20260902050303 | 21 | 70 | 16.1 | 0.0 | 0.00 | 0.00 | 0.00 | 73 | 1019.0 |
| 20260902044802 | 21 | 80 | 11.3 | 0.0 | 0.00 | 0.00 | 0.00 | 73 | 1019.0 |
| 20260902043302 | 21 | 80 | 11.3 | 0.0 | 0.00 | 0.00 | 0.00 | 73 | 1019.0 |
| 20260902041802 | 21 | 60 | 11.3 | 0.0 | 0.00 | 0.00 | 0.00 | 73 | 1019.0 |
| 20260902040306 | 21 | 60 | 11.3 | 0.0 | 0.00 | 0.00 | 0.00 | 73 | 1019.0 |
| 20260902034802 | 21 | 40 | 12.9 | 0.0 | 0.00 | 0.00 | 0.00 | 73 | 1018.0 |
| 20260902033303 | 21 | 40 | 12.9 | 0.0 | 0.00 | 0.00 | 0.00 | 73 | 1018.0 |
| 20260902031802 | 21 | 90 | 8.0 | 0.0 | 0.00 | 0.00 | 0.00 | 73 | 1019.0 |
| 20260902030302 | 21 | 90 | 8.0 | 0.0 | 0.00 | 0.00 | 0.00 | 73 | 1019.0 |
| 20260902024802 | 21 | 50 | 9.7 | 0.0 | 0.00 | 0.00 | 0.00 | 73 | 1018.0 |
| 20260902023302 | 21 | 50 | 9.7 | 0.0 | 0.00 | 0.00 | 0.00 | 73 | 1018.0 |
| 20260902021803 | 21 | 80 | 11.3 | 0.0 | 0.00 | 0.00 | 0.00 | 73 | 1018.0 |
| 20260902020302 | 21 | 80 | 11.3 | 0.0 | 0.00 | 0.00 | 0.00 | 73 | 1018.0 |
| 20260902014801 | 21 | 70 | 12.9 | 0.0 | 0.00 | 0.00 | 0.00 | 73 | 1018.0 |
| 20260902013301 | 21 | 70 | 12.9 | 0.0 | 0.00 | 0.00 | 0.00 | 73 | 1018.0 |
| 20260902011801 | 21 | 50 | 11.3 | 0.0 | 0.00 | 0.00 | 0.00 | 73 | 1018.0 |
| 20260902010302 | 21 | 50 | 11.3 | 0.0 | 0.00 | 0.00 | 0.00 | 73 | 1018.0 |
| 20260902004801 | 21 | 70 | 12.9 | 0.0 | 0.00 | 0.00 | 0.00 | 73 | 1018.0 |
| 20260902003301 | 21 | 70 | 12.9 | 0.0 | 0.00 | 0.00 | 0.00 | 73 | 1018.0 |
| 20260902001803 | 22 | 60 | 12.9 | 0.0 | 0.00 | 0.00 | 0.00 | 69 | 1018.0 |
| 20260902000308 | 22 | 60 | 12.9 | 0.0 | 0.00 | 0.00 | 0.00 | 69 | 1018.0 |
| 20260901234804 | 22 | 70 | 11.3 | 0.0 | 0.00 | 0.00 | 0.00 | 69 | 1018.0 |
| 20260901233302 | 22 | 70 | 11.3 | 0.0 | 0.00 | 0.00 | 0.00 | 69 | 1018.0 |
| 20260901231802 | 22 | 70 | 11.3 | 0.0 | 0.00 | 0.00 | 0.00 | 69 | 1018.0 |
| 20260901230318 | 22 | 70 | 11.3 | 0.0 | 0.00 | 0.00 | 0.00 | 69 | 1018.0 |
| 20260901224802 | 22 | 70 | 14.5 | 0.0 | 0.00 | 0.00 | 0.00 | 61 | 1018.0 |
| 20260901223302 | 22 | 70 | 14.5 | 0.0 | 0.00 | 0.00 | 0.00 | 61 | 1018.0 |
| 20260901221801 | 23 | 70 | 14.5 | 0.0 | 0.00 | 0.00 | 0.00 | 57 | 1018.0 |
| 20260901220302 | 23 | 70 | 14.5 | 0.0 | 0.00 | 0.00 | 0.00 | 57 | 1018.0 |
| 20260901214803 | 23 | 60 | 14.5 | 0.0 | 0.00 | 0.00 | 0.00 | 57 | 1017.0 |
| 20260901213405 | 25 | 40 | 12.9 | 0.0 | 0.00 | 0.00 | 0.00 | 54 | 1017.0 |
| 20260901211802 | 25 | 40 | 12.9 | 0.0 | 0.00 | 0.00 | 0.00 | 54 | 1017.0 |
| 20260901210332 | 25 | 40 | 12.9 | 0.0 | 0.00 | 0.00 | 0.00 | 54 | 1017.0 |
| 20260901204804 | 25 | 70 | 4.8 | 0.0 | 0.00 | 0.00 | 0.00 | 51 | 1017.0 |
| 20260901203334 | 25 | 70 | 4.8 | 0.0 | 0.00 | 0.00 | 0.00 | 51 | 1017.0 |
| 20260901201803 | 23 | 20 | 11.3 | 0.0 | 0.00 | 0.00 | 0.00 | 54 | 1017.0 |
| 20260901200302 | 23 | 20 | 11.3 | 0.0 | 0.00 | 0.00 | 0.00 | 54 | 1017.0 |
| 20260901194915 | 23 | 20 | 4.8 | 0.0 | 0.00 | 0.00 | 0.00 | 54 | 1017.0 |
| 20260901193325 | 23 | 20 | 4.8 | 0.0 | 0.00 | 0.00 | 0.00 | 54 | 1017.0 |
| 20260901191825 | 25 | 50 | 4.8 | 0.0 | 0.00 | 0.00 | 0.00 | 51 | 1017.0 |
| 20260901190316 | 25 | 50 | 4.8 | 0.0 | 0.00 | 0.00 | 0.00 | 51 | 1017.0 |
| 20260901184802 | 25 | 0 | 0.0 | 0.0 | 0.00 | 0.00 | 0.00 | 51 | 1016.0 |
| 20260901183302 | 25 | 0 | 0.0 | 0.0 | 0.00 | 0.00 | 0.00 | 51 | 1016.0 |
| 20260901181802 | 25 | 120 | 3.2 | 0.0 | 0.00 | 0.00 | 0.00 | 47 | 1016.0 |
| 20260901180302 | 25 | 120 | 3.2 | 0.0 | 0.00 | 0.00 | 0.00 | 47 | 1016.0 |
| 20260901174801 | 26 | 110 | 8.0 | 0.0 | 0.00 | 0.00 | 0.00 | 45 | 1016.0 |
| 20260901173303 | 26 | 110 | 8.0 | 0.0 | 0.00 | 0.00 | 0.00 | 45 | 1016.0 |
| 20260901171803 | 27 | 60 | 9.7 | 0.0 | 0.00 | 0.00 | 0.00 | 37 | 1015.0 |
| 20260901170302 | 27 | 60 | 9.7 | 0.0 | 0.00 | 0.00 | 0.00 | 37 | 1015.0 |
| 20260901164803 | 30 | 90 | 11.3 | 0.0 | 0.00 | 0.00 | 0.00 | 33 | 1015.0 |
| 20260901163309 | 30 | 90 | 11.3 | 0.0 | 0.00 | 0.00 | 0.00 | 33 | 1015.0 |
| 20260901161802 | 31 | 90 | 9.7 | 0.0 | 0.00 | 0.00 | 0.00 | 31 | 1015.0 |
| 20260901160306 | 31 | 90 | 9.7 | 0.0 | 0.00 | 0.00 | 0.00 | 31 | 1015.0 |
| 20260901154802 | 31 | 1.6 | 0.0 | 0.00 | 0.00 | 0.00 | 33 | 1015.0 | |
| 20260901153302 | 31 | 1.6 | 0.0 | 0.00 | 0.00 | 0.00 | 33 | 1015.0 | |
| 20260901151802 | 30 | 240 | 4.8 | 0.0 | 0.00 | 0.00 | 0.00 | 31 | 1015.0 |
| 20260901150302 | 30 | 240 | 4.8 | 0.0 | 0.00 | 0.00 | 0.00 | 31 | 1015.0 |
| 20260901144840 | 32 | 300 | 12.9 | 0.0 | 0.00 | 0.00 | 0.00 | 27 | 1015.0 |
| 20260901143302 | 32 | 300 | 12.9 | 0.0 | 0.00 | 0.00 | 0.00 | 27 | 1015.0 |
| 20260901141815 | 32 | 310 | 11.3 | 0.0 | 0.00 | 0.00 | 0.00 | 29 | 1015.0 |
| 20260901140415 | 32 | 4.8 | 0.0 | 0.00 | 0.00 | 0.00 | 24 | 1015.0 | |
| 20260901134802 | 32 | 4.8 | 0.0 | 0.00 | 0.00 | 0.00 | 24 | 1015.0 | |
| 20260901133302 | 32 | 4.8 | 0.0 | 0.00 | 0.00 | 0.00 | 24 | 1015.0 | |
| 20260901131810 | 32 | 270 | 9.7 | 0.0 | 0.00 | 0.00 | 0.00 | 24 | 1015.0 |
| 20260901130301 | 32 | 270 | 9.7 | 0.0 | 0.00 | 0.00 | 0.00 | 24 | 1015.0 |
| 20260901124808 | 32 | 8.0 | 0.0 | 0.00 | 0.00 | 0.00 | 24 | 1016.0 | |
| 20260901123302 | 32 | 8.0 | 0.0 | 0.00 | 0.00 | 0.00 | 24 | 1016.0 | |
| 20260901121801 | 32 | 320 | 11.3 | 0.0 | 0.00 | 0.00 | 0.00 | 24 | 1016.0 |
| 20260901120302 | 32 | 320 | 11.3 | 0.0 | 0.00 | 0.00 | 0.00 | 24 | 1016.0 |
| 20260901114802 | 31 | 300 | 9.7 | 0.0 | 0.00 | 0.00 | 0.00 | 24 | 1016.0 |
| 20260901113302 | 31 | 300 | 9.7 | 0.0 | 0.00 | 0.00 | 0.00 | 24 | 1016.0 |
| 20260901111802 | 31 | 170 | 4.8 | 0.0 | 0.00 | 0.00 | 0.00 | 24 | 1016.0 |
| 20260901110302 | 31 | 170 | 4.8 | 0.0 | 0.00 | 0.00 | 0.00 | 24 | 1016.0 |
| 20260901104802 | 30 | 4.8 | 0.0 | 0.00 | 0.00 | 0.00 | 25 | 1016.0 | |
| 20260901103302 | 30 | 4.8 | 0.0 | 0.00 | 0.00 | 0.00 | 25 | 1016.0 |